Showing default

BLACKJACK ACES-1, 56956

Orbit data source: Space-Track

BLACKJACK ACES-1, 56956 is a payload satellite owned by DARPA (US) in SSO that was launched on Mon, 12 Jun 2023 UTC via an FALCON 9 launch vehicle from the Air Force Western Test Range (AFWTR). Payload-class satellites include a variety of spacecraft equipped with specific instruments for various scientific and technological missions. These include communications satellites like Starlink; space stations such as the ISS; scientific satellites like the Hubble; Earth observation satellites from companies like Planet Labs, Umbra, and HawkEye 360; GPS; miniature CubeSats for education and research; and military/defense satellites.

Loading next visibility...
Identifier
56956, 2023-084AA
Orbit
SSO
Country
Flag of USUS
Related business
Manufacturer
BLCAN/LMSS
Mission
Operational Defense Communications
Bus & Motor
X-SAT, Unknown motor
Mass
~200 kg wet, ~200 kg dry
Launch date (UTC)
2023-06-12 (2 years ago)
Launch vehicle
FALCON 9
Launch site
Air Force Western Test Range (AFWTR)
Object type
Payload
Rocket body
Debris
Shape & HBR
Box, 0.8 m
Radar Cross Section
0.875 m², Large (>1 m²)

Expand to show TLE details & history
Last TLE update: 12 hours ago

TLE from 12 hours ago
0 BLACKJACK ACES-1
1 56956U 23084AA  25259.11961112  .00012281  00000-0  53970-3 0  9994
2 56956  97.5838  26.9711 0006441 206.3084 153.7825 15.22037868 75259
Epoch: 2025-09-16T02:52Z
TLE epoch observation values (Epoch: 2025-09-16T02:52:14.4Z)
Latitude
-0.00009°
Longitude
-11.40337°
Altitude
506.758 km
Speed
7.609 km/s
True Right ascension
01h 47m 53s
True Declination
0° 00' 00"
Sunlit
Object was in full shadow at epoch
Visualization orbit readout
Latitude
Unknown
Longitude
Unknown
Altitude
Unknown
Speed
Unknown
Apparent Right ascension
Unknown
Apparent Declination
Unknown
Sunlit
N/A
Visualization observer readout
Local Sidereal Time
07:11:13
Azimuth
Unknown
Elevation
Unknown
Doppler factor
Unknown
Orbital elements
Apogee altitude
501.093 km
Perigee altitude
492.237 km
Semi-major axis
6,874.802 km
Eccentricity
0.00064
Inclination
97.5838°
RAAN
26.9711°
Arg. of periapsis
206.3084°
True anomaly
153.81508°
Mean anomaly
153.7825°
Eccentric anomaly
153.79879°
Mean motion
3.80761 °/min
Orbital period
94.55 mins
BSTAR
0.0005397
Loading maneuver chart data...
Computing Atmospheric mass density...
Loading historical data...
Loading historical data...
Loading historical data...
Loading historical data...
Loading historical data...
Loading historical data...
Loading historical data...

Documentation

Showing up to 5 results
|